Tracking 35237 objects as of 6-Sep-2026
HD Live streaming from Space Station
objects crossing your sky now

TITAN 3C TRANSTAGE DEB


NORAD ID: 8832
Int'l Code: 1976-023J
Launch date: March 15, 1976
Source: United States (US)
Launch site: AIR FORCE EASTERN TEST RANGE (AFETR)

Note: This is SATELLITE DEBRIS
Your satellite tracking list
Your tracking list is empty




NASA's NSSDC Master Catalog

Two Line Element Set (TLE):
1  8832U 76023J   26206.26288565 -.00000047  00000-0  00000+0 0  9998
2  8832  21.9311  42.2306 0139480  99.7423 137.4537  0.98258647117970
Source of the keplerian elements: AFSPC